FW7170 Weather Reports


time (UTC)temp
C
wind
direction
speed
KPH
gust
KPH
rain 1hr
cm
rain 24hr
cm
rain mn
cm
humidity
%
barometer
mb
20260505214317 25 109 0.0 1.6 0.00 0.00 0.00 60 1016.4
20260505213813 25 120 1.6 3.2 0.00 0.00 0.00 59 1016.6
20260505213312 25 125 1.6 1.6 0.00 0.00 0.00 62 1016.4
20260505212807 25 136 1.6 1.6 0.00 0.00 0.00 62 1016.9
20260505212306 25 145 3.2 3.2 0.00 0.00 0.00 63 1016.7
20260505211801 25 106 9.7 12.9 0.00 0.00 0.00 62 1016.4
20260505211259 25 100 4.8 9.7 0.00 0.00 0.00 61 1016.3
20260505210754 25 66 4.8 8.0 0.00 0.00 0.00 62 1016.4
20260505210252 25 128 8.0 11.3 0.00 0.00 0.00 61 1016.6
20260505205749 25 121 4.8 8.0 0.00 0.00 0.00 60 1016.6
20260505205248 25 148 3.2 3.2 0.00 0.00 0.00 58 1016.6
20260505204743 26 116 1.6 1.6 0.00 0.00 0.00 58 1016.4
20260505204242 26 119 1.6 1.6 0.00 0.00 0.00 57 1016.3
20260505203738 25 128 3.2 3.2 0.00 0.00 0.00 60 1016.5
20260505203235 26 163 4.8 8.0 0.00 0.00 0.00 57 1016.5
20260505202731 26 146 4.8 4.8 0.00 0.00 0.00 57 1016.5
20260505202227 26 135 3.2 3.2 0.00 0.00 0.00 59 1016.3
20260505201724 26 130 1.6 3.2 0.00 0.00 0.00 56 1016.6
20260505201222 25 148 3.2 3.2 0.00 0.00 0.00 57 1016.6
20260505200720 26 108 1.6 1.6 0.00 0.00 0.00 56 1016.5
20260505200216 25 89 4.8 8.0 0.00 0.00 0.00 56 1016.8
20260505195712 25 113 1.6 3.2 0.00 0.00 0.00 58 1016.5
20260505195209 25 116 1.6 3.2 0.00 0.00 0.00 58 1016.8
20260505194707 25 94 3.2 8.0 0.00 0.00 0.00 60 1017.0
20260505194203 25 106 8.0 11.3 0.00 0.00 0.00 57 1017.3
20260505193659 25 143 1.6 1.6 0.00 0.00 0.00 59 1017.2
20260505193157 25 111 3.2 3.2 0.00 0.00 0.00 58 1017.3
20260505192655 26 155 1.6 3.2 0.00 0.00 0.00 56 1017.4
20260505192152 26 126 3.2 3.2 0.00 0.00 0.00 54 1017.7
20260505191650 26 159 3.2 3.2 0.00 0.00 0.00 52 1017.6
20260505191148 26 73 1.6 3.2 0.00 0.00 0.00 54 1017.8
20260505190644 26 158 3.2 4.8 0.00 0.00 0.00 55 1017.8
20260505190144 26 156 3.2 3.2 0.00 0.00 0.00 55 1017.7
20260505185641 25 116 3.2 4.8 0.00 0.00 0.00 59 1017.8
20260505185137 26 160 3.2 3.2 0.00 0.00 0.00 55 1017.5
20260505184634 26 155 4.8 4.8 0.00 0.00 0.00 58 1017.6
20260505184131 26 141 3.2 3.2 0.00 0.00 0.00 61 1017.9
20260505183628 25 150 1.6 3.2 0.00 0.00 0.00 65 1017.7
20260505183126 26 183 3.2 3.2 0.00 0.00 0.00 59 1017.5
20260505182621 26 103 1.6 1.6 0.00 0.00 0.00 60 1017.4
20260505182118 26 88 4.8 4.8 0.00 0.00 0.00 58 1017.5
20260505181615 25 167 3.2 3.2 0.00 0.00 0.00 58 1017.5
20260505181112 25 134 1.6 1.6 0.00 0.00 0.00 58 1017.7
20260505180608 25 106 1.6 3.2 0.00 0.00 0.00 61 1017.7
20260505180106 25 138 3.2 3.2 0.00 0.00 0.00 57 1017.5
20260505175601 25 143 3.2 3.2 0.00 0.00 0.00 61 1017.4
20260505175058 25 145 3.2 3.2 0.00 0.00 0.00 59 1017.8
20260505174555 25 118 1.6 1.6 0.00 0.00 0.00 60 1017.6
20260505174051 25 106 8.0 9.7 0.00 0.00 0.00 60 1017.4
20260505173548 26 164 3.2 3.2 0.00 0.00 0.00 60 1017.3
20260505173044 25 118 1.6 3.2 0.00 0.00 0.00 60 1017.7
20260505172542 26 109 1.6 3.2 0.00 0.00 0.00 57 1017.6
20260505172038 26 102 1.6 1.6 0.00 0.00 0.00 56 1017.8
20260505171533 26 118 1.6 3.2 0.00 0.00 0.00 59 1017.9
20260505171031 25 108 4.8 4.8 0.00 0.00 0.00 61 1017.9
20260505170528 25 125 1.6 3.2 0.00 0.00 0.00 62 1017.9
20260505170024 26 87 1.6 3.2 0.00 0.00 0.00 60 1017.9
20260505165519 25 90 4.8 8.0 0.00 0.00 0.00 59 1018.1
20260505165015 26 101 3.2 3.2 0.00 0.00 0.00 56 1018.0
20260505164511 25 112 3.2 3.2 0.00 0.00 0.00 60 1018.0
20260505164009 25 140 3.2 8.0 0.00 0.00 0.00 62 1018.1
20260505163507 26 137 3.2 4.8 0.00 0.00 0.00 59 1018.5
20260505163003 26 160 3.2 4.8 0.00 0.00 0.00 59 1018.1
20260505162457 25 107 0.0 1.6 0.00 0.00 0.00 59 1018.1
20260505161954 25 163 3.2 8.0 0.00 0.00 0.00 60 1018.2
20260505161450 25 23 3.2 3.2 0.00 0.00 0.00 61 1018.4
20260505160948 25 104 3.2 4.8 0.00 0.00 0.00 58 1018.4
20260505160446 25 73 1.6 1.6 0.00 0.00 0.00 60 1018.6
20260505152922 24 110 0.0 1.6 0.00 0.00 0.00 64 1018.4
20260505152414 25 184 3.2 4.8 0.00 0.00 0.00 61 1018.4
20260505151913 26 126 1.6 1.6 0.00 0.00 0.00 59 1018.4
20260505151410 25 96 0.0 1.6 0.00 0.00 0.00 60 1018.6
20260505150907 25 127 1.6 3.2 0.00 0.00 0.00 65 1018.5
20260505150404 24 148 3.2 4.8 0.00 0.00 0.00 61 1018.4
20260505140322 23 169 4.8 4.8 0.00 0.00 0.00 67 1018.3
20260505130246 22 101 0.0 1.6 0.00 0.00 0.00 75 1018.3
20260505124731 22 105 0.0 1.6 0.00 0.00 0.00 75 1018.1
20260505124228 21 105 1.6 1.6 0.00 0.00 0.00 75 1018.1
20260505123723 22 101 0.0 0.0 0.00 0.00 0.00 78 1018.1
20260505123220 21 101 0.0 0.0 0.00 0.00 0.00 77 1018.0
20260505122717 21 102 1.6 1.6 0.00 0.00 0.00 77 1018.2
20260505122214 21 97 0.0 0.0 0.00 0.00 0.00 80 1017.9
20260505121710 21 97 0.0 0.0 0.00 0.00 0.00 82 1018.2
20260505121207 20 97 0.0 0.0 0.00 0.00 0.00 85 1018.2
20260505120704 18 97 0.0 0.0 0.00 0.00 0.00 89 1018.2
20260505120159 17 97 0.0 0.0 0.00 0.00 0.00 95 1018.2
20260505115659 16 97 0.0 0.0 0.00 0.00 0.00 97 1017.8
20260505115157 16 97 0.0 0.0 0.00 0.00 0.00 99 1018.0
20260505114654 16 97 0.0 0.0 0.00 0.00 0.00 99 1017.8
20260505114150 15 97 0.0 0.0 0.00 0.00 0.00 99 1017.9
20260505113646 15 97 0.0 0.0 0.00 0.00 0.00 99 1017.8
20260505113143 13 97 0.0 0.0 0.00 0.00 0.00 99 1017.8
20260505112640 13 97 0.0 0.0 0.00 0.00 0.00 99 1017.5
20260505112138 13 97 0.0 0.0 0.00 0.00 0.00 99 1017.7
20260505111637 12 97 0.0 0.0 0.00 0.00 0.00 99 1017.5
20260505111133 12 97 0.0 0.0 0.00 0.00 0.00 99 1017.7
20260505110629 12 97 0.0 0.0 0.00 0.00 0.00 99 1017.5
20260505110127 12 97 0.0 0.0 0.00 0.00 0.00 99 1017.4
20260505102102 12 97 0.0 0.0 0.00 0.00 0.00 99 1017.1
20260505101601 12 97 0.0 0.0 0.00 0.00 0.00 99 1016.8
20260505101057 12 97 0.0 0.0 0.00 0.00 0.00 99 1017.0
20260505100553 12 97 0.0 0.0 0.00 0.00 0.00 99 1016.9
20260505100050 12 95 0.0 0.0 0.00 0.00 0.00 99 1016.7
20260505095547 12 95 0.0 0.0 0.00 0.00 0.00 99 1016.9
20260505095043 12 94 0.0 0.0 0.00 0.00 0.00 99 1017.0
20260505094540 12 94 0.0 0.0 0.00 0.00 0.00 99 1016.9
20260505094036 12 94 0.0 0.0 0.00 0.00 0.00 99 1016.8
20260505093532 12 94 0.0 0.0 0.00 0.00 0.00 99 1017.0
20260505093030 12 94 0.0 0.0 0.00 0.00 0.00 99 1016.8
20260505092527 12 94 0.0 0.0 0.00 0.00 0.00 99 1016.7
20260505092026 12 94 0.0 0.0 0.00 0.00 0.00 99 1016.8
20260505091522 12 94 0.0 0.0 0.00 0.00 0.00 99 1016.8
20260505091020 12 94 0.0 0.0 0.00 0.00 0.00 99 1016.7
20260505090518 12 94 0.0 0.0 0.00 0.00 0.00 99 1016.6
20260505090016 12 94 0.0 0.0 0.00 0.00 0.00 99 1016.6
20260505085513 12 94 0.0 0.0 0.00 0.00 0.00 99 1016.7
20260505085011 12 94 0.0 0.0 0.00 0.00 0.00 99 1016.5
20260505084509 13 94 0.0 0.0 0.00 0.00 0.00 99 1016.6
20260505084007 12 94 0.0 0.0 0.00 0.00 0.00 99 1016.6
20260505083504 12 94 0.0 0.0 0.00 0.00 0.00 99 1016.6
20260505083001 12 94 0.0 0.0 0.00 0.00 0.00 99 1016.4
20260505082456 12 94 0.0 0.0 0.00 0.00 0.00 99 1016.4
20260505081953 12 94 0.0 0.0 0.00 0.00 0.00 99 1016.2
20260505081450 12 94 0.0 0.0 0.00 0.00 0.00 99 1016.3
20260505080946 12 93 0.0 0.0 0.00 0.00 0.00 99 1016.3
20260505080437 12 93 0.0 0.0 0.00 0.00 0.00 99 1016.2
20260505075932 12 93 0.0 0.0 0.00 0.00 0.00 99 1016.2
20260505075429 13 93 0.0 0.0 0.00 0.00 0.00 99 1016.5
20260505074927 13 93 0.0 0.0 0.00 0.00 0.00 99 1015.9
20260505074424 12 93 0.0 0.0 0.00 0.00 0.00 99 1016.2
20260505073921 13 93 0.0 0.0 0.00 0.00 0.00 99 1016.2
20260505073419 13 93 0.0 0.0 0.00 0.00 0.00 99 1016.2
20260505072916 13 93 0.0 0.0 0.00 0.00 0.00 99 1016.3
20260505072412 13 93 0.0 0.0 0.00 0.00 0.00 99 1016.1
20260505071908 13 93 0.0 0.0 0.00 0.00 0.00 99 1016.2
20260505071404 12 93 0.0 0.0 0.00 0.00 0.00 98 1016.3
20260505070903 13 93 0.0 0.0 0.00 0.00 0.00 98 1016.2
20260505070359 13 93 0.0 0.0 0.00 0.00 0.00 98 1016.2
20260505065854 13 93 0.0 0.0 0.00 0.00 0.00 98 1016.2
20260505065351 13 93 0.0 0.0 0.00 0.00 0.00 98 1016.2
20260505064848 13 93 0.0 0.0 0.00 0.00 0.00 98 1016.5
20260505064345 13 93 0.0 0.0 0.00 0.00 0.00 98 1016.4
20260505063844 13 93 0.0 0.0 0.00 0.00 0.00 98 1016.5
20260505063339 13 93 0.0 0.0 0.00 0.00 0.00 98 1016.7
20260505062836 13 93 0.0 0.0 0.00 0.00 0.00 97 1016.5
20260505062333 13 93 0.0 0.0 0.00 0.00 0.00 97 1016.7
20260505061830 13 93 0.0 0.0 0.00 0.00 0.00 97 1016.5
20260505061328 13 93 0.0 0.0 0.00 0.00 0.00 97 1016.5
20260505060826 13 93 0.0 0.0 0.00 0.00 0.00 97 1016.8
20260505060322 13 93 0.0 0.0 0.00 0.00 0.00 97 1016.9
20260505055817 13 93 0.0 0.0 0.00 0.00 0.00 97 1017.0
20260505055314 13 93 0.0 0.0 0.00 0.00 0.00 97 1017.0
20260505054812 13 93 0.0 0.0 0.00 0.00 0.00 96 1017.1
20260505054309 13 93 0.0 0.0 0.00 0.00 0.00 96 1017.0
20260505053807 13 93 0.0 0.0 0.00 0.00 0.00 96 1016.9
20260505053304 13 93 0.0 0.0 0.00 0.00 0.00 95 1017.3
20260505052800 13 93 0.0 0.0 0.00 0.00 0.00 95 1017.3
20260505052257 13 93 0.0 0.0 0.00 0.00 0.00 95 1017.5
20260505051754 13 93 0.0 0.0 0.00 0.00 0.00 94 1017.2
20260505051252 13 93 0.0 0.0 0.00 0.00 0.00 94 1017.3
20260505050750 13 93 0.0 0.0 0.00 0.00 0.00 94 1017.4
20260505050248 13 93 0.0 0.0 0.00 0.00 0.00 94 1017.5
20260505041718 14 93 0.0 0.0 0.00 0.00 0.00 89 1017.5
20260505041215 14 93 0.0 0.0 0.00 0.00 0.00 90 1017.5
20260505040713 14 93 0.0 0.0 0.00 0.00 0.00 89 1017.4
20260505040210 15 93 0.0 0.0 0.00 0.00 0.00 88 1017.5
20260505035706 15 93 0.0 0.0 0.00 0.00 0.00 87 1017.5
20260505035202 15 93 0.0 0.0 0.00 0.00 0.00 86 1017.6
20260505034659 15 93 0.0 0.0 0.00 0.00 0.00 85 1017.3
20260505034156 15 93 0.0 0.0 0.00 0.00 0.00 85 1017.5
20260505033652 15 94 0.0 0.0 0.00 0.00 0.00 85 1017.3
20260505033151 15 94 0.0 0.0 0.00 0.00 0.00 84 1017.5
20260505032648 15 94 0.0 0.0 0.00 0.00 0.00 83 1017.4
20260505032144 15 94 0.0 0.0 0.00 0.00 0.00 83 1017.5
20260505031642 15 94 0.0 0.0 0.00 0.00 0.00 83 1017.5
20260505031137 15 94 0.0 0.0 0.00 0.00 0.00 82 1017.6
20260505030635 15 94 0.0 0.0 0.00 0.00 0.00 82 1017.4
20260505030130 16 94 0.0 0.0 0.00 0.00 0.00 81 1017.5
20260505025626 16 94 0.0 0.0 0.00 0.00 0.00 80 1017.4
20260505025125 16 94 0.0 0.0 0.00 0.00 0.00 80 1017.6
20260505024622 16 95 0.0 0.0 0.00 0.00 0.00 79 1017.6
20260505024120 16 95 0.0 0.0 0.00 0.00 0.00 78 1017.4
20260505023617 16 95 0.0 1.6 0.00 0.00 0.00 77 1017.4
20260505023115 16 95 0.0 1.6 0.00 0.00 0.00 77 1017.5
20260505022612 16 95 0.0 0.0 0.00 0.00 0.00 76 1017.4
20260505022108 16 95 0.0 0.0 0.00 0.00 0.00 76 1017.6
20260505021605 16 95 0.0 0.0 0.00 0.00 0.00 75 1017.4
20260505021102 16 96 0.0 0.0 0.00 0.00 0.00 76 1017.6
20260505020602 16 95 0.0 0.0 0.00 0.00 0.00 75 1017.6
20260505020059 16 96 0.0 0.0 0.00 0.00 0.00 76 1017.6
20260505015556 17 96 0.0 0.0 0.00 0.00 0.00 75 1017.4
20260505015053 16 96 0.0 0.0 0.00 0.00 0.00 75 1017.2
20260505014549 16 96 0.0 0.0 0.00 0.00 0.00 77 1017.3
20260505014047 16 96 0.0 0.0 0.00 0.00 0.00 79 1017.0
20260505013544 16 96 0.0 0.0 0.00 0.00 0.00 78 1017.1
20260505013041 16 96 0.0 0.0 0.00 0.00 0.00 77 1017.3
20260505012539 16 96 0.0 0.0 0.00 0.00 0.00 73 1017.2
20260505012036 17 96 0.0 0.0 0.00 0.00 0.00 73 1017.2
20260505011531 17 96 0.0 0.0 0.00 0.00 0.00 73 1017.2
20260505011029 17 96 0.0 0.0 0.00 0.00 0.00 72 1016.9
20260505010524 17 96 0.0 0.0 0.00 0.00 0.00 69 1017.0
20260505010021 18 100 0.0 0.0 0.00 0.00 0.00 68 1016.9
20260505005517 18 100 0.0 0.0 0.00 0.00 0.00 67 1017.1
20260505005015 18 101 1.6 1.6 0.00 0.00 0.00 66 1016.9
20260505004511 18 101 0.0 0.0 0.00 0.00 0.00 66 1017.0
20260505004008 18 101 0.0 0.0 0.00 0.00 0.00 65 1016.9
20260505003505 18 101 0.0 0.0 0.00 0.00 0.00 65 1016.8
20260505003003 18 106 0.0 0.0 0.00 0.00 0.00 64 1016.9
20260505002458 19 106 0.0 0.0 0.00 0.00 0.00 63 1016.7
20260505001956 19 107 0.0 1.6 0.00 0.00 0.00 62 1016.7
20260505001453 20 106 1.6 1.6 0.00 0.00 0.00 61 1016.6
20260505000950 20 106 0.0 0.0 0.00 0.00 0.00 60 1016.8
20260505000448 20 108 1.6 1.6 0.00 0.00 0.00 60 1017.0
20260504235945 20 112 1.6 1.6 0.00 0.00 0.00 58 1017.1
20260504235442 20 116 1.6 1.6 0.00 0.00 0.00 59 1016.8
20260504234938 20 98 0.0 1.6 0.00 0.00 0.00 60 1016.9
20260504234436 20 105 0.0 1.6 0.00 0.00 0.00 57 1016.8
20260504233932 21 111 1.6 1.6 0.00 0.00 0.00 57 1017.0
20260504233428 21 114 0.0 0.0 0.00 0.00 0.00 55 1016.8
20260504232925 21 123 3.2 3.2 0.00 0.00 0.00 54 1016.7
20260504232422 21 122 1.6 3.2 0.00 0.00 0.00 52 1016.5
20260504231919 22 113 1.6 1.6 0.00 0.00 0.00 51 1016.5
20260504231415 22 108 0.0 1.6 0.00 0.00 0.00 54 1016.5
20260504230912 22 113 1.6 1.6 0.00 0.00 0.00 53 1016.6
20260504230409 22 148 3.2 3.2 0.00 0.00 0.00 54 1016.4
20260504225908 23 118 1.6 1.6 0.00 0.00 0.00 53 1016.9
20260504225404 22 147 1.6 3.2 0.00 0.00 0.00 51 1016.6
20260504224902 22 117 1.6 3.2 0.00 0.00 0.00 52 1016.6
20260504224358 23 127 1.6 1.6 0.00 0.00 0.00 52 1016.6
20260504223855 23 162 1.6 3.2 0.00 0.00 0.00 54 1016.6
20260504223350 23 108 3.2 3.2 0.00 0.00 0.00 50 1016.6
20260504222847 23 132 1.6 1.6 0.00 0.00 0.00 53 1016.7
20260504222344 23 115 1.6 1.6 0.00 0.00 0.00 51 1016.6
20260504221843 23 138 3.2 3.2 0.00 0.00 0.00 54 1016.4
20260504221339 23 148 1.6 3.2 0.00 0.00 0.00 52 1016.6
20260504220836 23 158 3.2 3.2 0.00 0.00 0.00 54 1016.6
20260504220332 24 150 3.2 3.2 0.00 0.00 0.00 54 1016.5
20260504215830 23 159 3.2 3.2 0.00 0.00 0.00 54 1016.7
20260504215326 23 127 1.6 3.2 0.00 0.00 0.00 54 1016.7
20260504214822 23 139 3.2 3.2 0.00 0.00 0.00 54 1016.7